ONEWEB-0184 (48211 NORAD) Tracking and Keplerian Element Data

This shows tracking and keplerian element data for the satellite.

Feedback or suggestion? Click here.




ElementValue
Catalog48211
NameONEWEB-0184
Epoch Orbit174
Epoch Day170.58334491
Epoch Year2021
RAAN295.0139
Inclination87.5446
Eccentricity0.0011707
Argument of Perigee73.9644
Mean Anonmoly219.2055
Mean Motion14.51561508
Decay Rate-0.00956657
L11 48211U 21031B 21170.58334491 -.00956657 00000-0 -25517+0 0 9990
L22 48211 87.5446 295.0139 0011707 73.9644 219.2055 14.51561508 1742

Live tracking and technical data element details for ONEWEB-0184 (NORAD 48211). ONEWEB-0184 can be tracked NOW for your location showing map with azimuth and elevation plus other details from your city location.

Track the satellite on the map from your city or location and see movement details for azimuth, elevation, latitude, longitude, range, height, and movement on the map or in text.







IsCatalogInMostPopularTable: catalog: 48211, numindb: 24
Update: records affected: 1



GetName: 48211 ONEWEB-0184

Hit Count: updated at: Mon, 21 Jun 2021 04:27:52 GMT